When you browse on this site, cookies collect data to enhance your experience and personalize the content and advertising you see.
Visit our Privacy Policy to learn more. By continuing to use the site, you agree to this use of cookies and data.
  • Em Portugal
  • Lista de países
  • Para 7 dias
  • Temperatura da água
  • Mapas de satélite
  • Mapa do tempo
  • Widgets de tempo
  • user-avatar
    Iniciar Sessão

    Previsão horária em La Rioja

    Hoje, 24 Maio, Sexta-feira

    Tempo Temperatura Precipitação Vento Pressão Humidade
    00:00 +10°C° 0 mm 1 m/s 717 mmHg 33%
    01:00 +9°C° 0 mm 1 m/s 717 mmHg 32%
    02:00 +9°C° 0 mm 1 m/s 716 mmHg 33%
    03:00 +9°C° 0 mm 1 m/s 716 mmHg 32%
    04:00 +9°C° 0 mm 1 m/s 715 mmHg 31%
    05:00 +9°C° 0 mm 1 m/s 715 mmHg 30%
    06:00 +10°C° 0 mm 1 m/s 715 mmHg 27%
    07:00 +11°C° 0 mm 1 m/s 715 mmHg 24%
    08:00 +12°C° 0 mm 1 m/s 716 mmHg 20%
    09:00 +14°C° 0 mm 1 m/s 716 mmHg 17%
    10:00 +17°C° 0 mm 2 m/s 716 mmHg 14%
    11:00 +20°C° 0 mm 2 m/s 716 mmHg 11%
    12:00 +21°C° 0 mm 2 m/s 715 mmHg 11%
    13:00 +22°C° 0 mm 3 m/s 715 mmHg 11%
    14:00 +24°C° 0 mm 3 m/s 714 mmHg 11%
    15:00 +23°C° 0 mm 2 m/s 713 mmHg 13%
    16:00 +21°C° 0 mm 2 m/s 713 mmHg 15%
    17:00 +20°C° 0 mm 2 m/s 713 mmHg 17%
    18:00 +18°C° 0 mm 2 m/s 713 mmHg 20%
    19:00 +16°C° 0 mm 2 m/s 713 mmHg 24%
    20:00 +14°C° 0 mm 2 m/s 713 mmHg 27%
    21:00 +14°C° 0 mm 2 m/s 713 mmHg 28%
    22:00 +15°C° 0 mm 2 m/s 713 mmHg 29%
    23:00 +15°C° 0 mm 2 m/s 713 mmHg 30%

    Amanhã, 25 Maio, Sábado

    Tempo Temperatura Precipitação Vento Pressão Humidade
    00:00 +14°C° 0 mm 2 m/s 713 mmHg 34%
    01:00 +13°C° 0 mm 2 m/s 712 mmHg 38%
    02:00 +12°C° 0 mm 2 m/s 712 mmHg 42%
    03:00 +12°C° 0 mm 2 m/s 711 mmHg 42%
    04:00 +13°C° 0 mm 2 m/s 711 mmHg 41%
    05:00 +13°C° 0 mm 2 m/s 711 mmHg 40%
    06:00 +13°C° 0 mm 2 m/s 711 mmHg 41%
    07:00 +13°C° 0 mm 2 m/s 711 mmHg 41%
    08:00 +14°C° 0 mm 2 m/s 711 mmHg 42%
    09:00 +16°C° 0 mm 2 m/s 711 mmHg 38%
    10:00 +17°C° 0 mm 2 m/s 711 mmHg 34%
    11:00 +19°C° 0 mm 2 m/s 711 mmHg 30%
    12:00 +20°C° 0 mm 2 m/s 710 mmHg 29%
    13:00 +21°C° 0 mm 3 m/s 710 mmHg 28%
    14:00 +22°C° 0 mm 3 m/s 709 mmHg 28%
    15:00 +21°C° 0 mm 2 m/s 709 mmHg 30%
    16:00 +21°C° 0 mm 2 m/s 708 mmHg 31%
    17:00 +20°C° 0 mm 2 m/s 708 mmHg 33%
    18:00 +19°C° 0 mm 2 m/s 709 mmHg 37%
    19:00 +17°C° 0 mm 2 m/s 709 mmHg 41%
    20:00 +16°C° 0 mm 2 m/s 709 mmHg 45%
    21:00 +15°C° 0 mm 2 m/s 710 mmHg 49%
    22:00 +15°C° 0 mm 2 m/s 710 mmHg 53%
    23:00 +14°C° 0 mm 2 m/s 710 mmHg 58%

    Depois de amanhã, 26 Maio, Domingo

    Tempo Temperatura Precipitação Vento Pressão Humidade
    00:00 +14°C° 0 mm 2 m/s 710 mmHg 59%
    01:00 +14°C° 0 mm 2 m/s 710 mmHg 61%
    02:00 +13°C° 0 mm 2 m/s 710 mmHg 63%
    03:00 +13°C° 0 mm 2 m/s 709 mmHg 63%
    04:00 +13°C° 0 mm 2 m/s 709 mmHg 63%
    05:00 +13°C° 0 mm 2 m/s 709 mmHg 62%
    06:00 +13°C° 0 mm 2 m/s 710 mmHg 60%
    07:00 +14°C° 0 mm 2 m/s 710 mmHg 57%
    08:00 +14°C° 0 mm 2 m/s 710 mmHg 54%
    09:00 +16°C° 0 mm 3 m/s 711 mmHg 48%
    10:00 +18°C° 0 mm 3 m/s 711 mmHg 42%
    11:00 +20°C° 0 mm 3 m/s 712 mmHg 37%
    12:00 +21°C° 0 mm 3 m/s 711 mmHg 35%
    13:00 +22°C° 0 mm 3 m/s 711 mmHg 33%
    14:00 +22°C° 0 mm 3 m/s 710 mmHg 30%
    15:00 +22°C° 0 mm 3 m/s 710 mmHg 32%
    16:00 +21°C° 0 mm 2 m/s 711 mmHg 35%
    17:00 +21°C° 0 mm 2 m/s 711 mmHg 37%
    18:00 +19°C° 0 mm 1 m/s 711 mmHg 44%
    19:00 +16°C° 0 mm 1 m/s 712 mmHg 52%
    20:00 +14°C° 0 mm 1 m/s 712 mmHg 59%
    21:00 +14°C° 0 mm 1 m/s 713 mmHg 60%
    22:00 +13°C° 0 mm 0 m/s 713 mmHg 61%
    23:00 +13°C° 0 mm 0 m/s 713 mmHg 61%

    27 Maio, Segunda-feira

    Tempo Temperatura Precipitação Vento Pressão Humidade
    00:00 +13°C° 0 mm 0 m/s 713 mmHg 62%
    01:00 +13°C° 0 mm 0 m/s 713 mmHg 63%
    02:00 +13°C° 0 mm 0 m/s 713 mmHg 63%
    03:00 +13°C° 0 mm 0 m/s 713 mmHg 63%
    04:00 +13°C° 0 mm 0 m/s 713 mmHg 62%
    05:00 +13°C° 0 mm 0 m/s 713 mmHg 61%
    06:00 +13°C° 0 mm 0 m/s 713 mmHg 59%
    07:00 +13°C° 0 mm 0 m/s 714 mmHg 58%
    08:00 +14°C° 0 mm 1 m/s 714 mmHg 56%
    09:00 +16°C° 0 mm 1 m/s 714 mmHg 50%
    10:00 +19°C° 0 mm 1 m/s 714 mmHg 44%
    11:00 +20°C° 0 mm 2 m/s 715 mmHg 38%
    12:00 +21°C° 0 mm 2 m/s 714 mmHg 37%
    13:00 +21°C° 0 mm 2 m/s 714 mmHg 37%
    14:00 +22°C° 0 mm 3 m/s 713 mmHg 37%
    15:00 +22°C° 0 mm 3 m/s 713 mmHg 40%
    16:00 +21°C° 0 mm 2 m/s 713 mmHg 43%
    17:00 +21°C° 0 mm 2 m/s 713 mmHg 46%
    18:00 +20°C° 0 mm 1 m/s 713 mmHg 55%
    19:00 +18°C° 0 mm 1 m/s 713 mmHg 65%
    20:00 +14°C° 0 mm 0 m/s 714 mmHg 74%
    21:00 +13°C° 0 mm 0 m/s 714 mmHg 76%
    22:00 +13°C° 0 mm 0 m/s 714 mmHg 77%
    23:00 +12°C° 0 mm 0 m/s 714 mmHg 78%

    28 Maio, Terça-feira

    Tempo Temperatura Precipitação Vento Pressão Humidade
    00:00 +12°C° 0 mm 0 m/s 714 mmHg 80%
    01:00 +12°C° 0 mm 0 m/s 714 mmHg 81%
    02:00 +11°C° 0 mm 0 m/s 713 mmHg 82%
    03:00 +11°C° 0 mm 0 m/s 713 mmHg 81%
    04:00 +12°C° 0 mm 1 m/s 713 mmHg 81%
    05:00 +12°C° 0 mm 1 m/s 713 mmHg 80%
    06:00 +13°C° 0 mm 1 m/s 713 mmHg 76%
    07:00 +13°C° 0 mm 1 m/s 713 mmHg 73%
    08:00 +14°C° 0 mm 2 m/s 714 mmHg 69%
    09:00 +15°C° 0 mm 2 m/s 714 mmHg 62%
    10:00 +17°C° 0 mm 2 m/s 713 mmHg 55%
    11:00 +19°C° 0 mm 2 m/s 713 mmHg 49%
    12:00 +20°C° 0 mm 2 m/s 713 mmHg 46%
    13:00 +21°C° 0 mm 2 m/s 712 mmHg 44%
    14:00 +23°C° 0 mm 2 m/s 711 mmHg 42%
    15:00 +21°C° 0 mm 2 m/s 711 mmHg 44%
    16:00 +21°C° 0 mm 2 m/s 711 mmHg 45%
    17:00 +21°C° 0 mm 2 m/s 711 mmHg 47%
    18:00 +19°C° 0 mm 2 m/s 711 mmHg 53%
    19:00 +18°C° 0 mm 2 m/s 711 mmHg 59%
    20:00 +16°C° 0 mm 2 m/s 711 mmHg 66%
    21:00 +16°C° 0 mm 2 m/s 712 mmHg 67%
    22:00 +15°C° 0 mm 2 m/s 712 mmHg 69%
    23:00 +15°C° 0 mm 2 m/s 712 mmHg 70%

    29 Maio, Quarta-feira

    Tempo Temperatura Precipitação Vento Pressão Humidade
    00:00 +15°C° 0 mm 2 m/s 711 mmHg 72%
    01:00 +15°C° 0 mm 2 m/s 711 mmHg 74%
    02:00 +14°C° 0 mm 2 m/s 711 mmHg 75%
    03:00 +14°C° 0 mm 2 m/s 710 mmHg 76%
    04:00 +14°C° 0 mm 2 m/s 710 mmHg 77%
    05:00 +14°C° 0 mm 2 m/s 710 mmHg 77%
    06:00 +14°C° 0 mm 2 m/s 710 mmHg 76%
    07:00 +14°C° 0 mm 2 m/s 710 mmHg 74%
    08:00 +14°C° 0 mm 2 m/s 711 mmHg 73%
    09:00 +16°C° 0 mm 2 m/s 711 mmHg 70%
    10:00 +17°C° 0 mm 3 m/s 710 mmHg 68%
    11:00 +18°C° 0 mm 3 m/s 710 mmHg 66%
    12:00 +18°C° 0 mm 3 m/s 710 mmHg 67%
    13:00 +18°C° 0 mm 4 m/s 709 mmHg 68%
    14:00 +19°C° 0 mm 4 m/s 708 mmHg 70%
    15:00 +18°C° 0 mm 4 m/s 708 mmHg 71%
    16:00 +17°C° 0 mm 3 m/s 709 mmHg 73%
    17:00 +17°C° 0 mm 3 m/s 709 mmHg 75%
    18:00 +16°C° 0 mm 3 m/s 709 mmHg 76%
    19:00 +14°C° 0 mm 3 m/s 710 mmHg 77%
    20:00 +13°C° 0 mm 3 m/s 711 mmHg 79%
    21:00 +13°C° 0 mm 3 m/s 711 mmHg 78%
    22:00 +13°C° 0 mm 3 m/s 711 mmHg 77%
    23:00 +12°C° 0 mm 3 m/s 712 mmHg 77%
    Mostrar mais